TimeWEST,TemperatureF,Dew PointF,Humidity,Sea Level PressureIn,VisibilityMPH,Wind Direction,Wind SpeedMPH,Gust SpeedMPH,PrecipitationIn,Events,Conditions,WindDirDegrees,DateUTC
12:00 AM,95.0,48.2,20,29.95,6.2,SSE,4.6,-,N/A,,Scattered Clouds,150,2013-08-18 23:00:00
12:30 AM,95.0,46.4,19,29.92,6.2,East,6.9,-,N/A,,Scattered Clouds,80,2013-08-18 23:30:00
1:00 AM,92,47,13,29.83,6,SE,4.6,,,,Scattered Clouds,140,2013-08-19 00:00:00
1:00 AM,91.4,48.2,23,29.95,6.2,ESE,3.5,-,N/A,,Scattered Clouds,120,2013-08-19 00:00:00
1:30 AM,91.4,55.4,29,29.92,-9999.0,SW,4.6,-,N/A,,Clear,220,2013-08-19 00:30:00
2:00 AM,89.6,53.6,29,29.92,-9999.0,WSW,5.8,-,N/A,,Clear,240,2013-08-19 01:00:00
2:30 AM,87.8,53.6,31,29.92,-9999.0,West,3.5,-,N/A,,Clear,270,2013-08-19 01:30:00
3:00 AM,87.8,51.8,29,29.92,-9999.0,Variable,2.3,-,N/A,,Clear,0,2013-08-19 02:00:00
3:30 AM,84.2,53.6,35,29.92,-9999.0,WNW,3.5,-,N/A,,Clear,300,2013-08-19 02:30:00
4:00 AM,85,58,29,29.83,6,NW,3.5,,,,,320,2013-08-19 03:00:00
4:00 AM,84.2,57.2,40,29.92,-9999.0,NNW,3.5,-,N/A,,Clear,330,2013-08-19 03:00:00
4:30 AM,86.0,59.0,40,29.92,-9999.0,West,2.3,-,N/A,,Clear,260,2013-08-19 03:30:00
5:00 AM,84.2,59.0,42,29.92,-9999.0,Calm,Calm,-,N/A,,Clear,0,2013-08-19 04:00:00
5:30 AM,84.2,57.2,40,29.92,-9999.0,ENE,3.5,-,N/A,,Clear,60,2013-08-19 04:30:00
6:00 AM,84.2,57.2,40,29.95,-9999.0,Variable,1.2,-,N/A,,Clear,0,2013-08-19 05:00:00
6:30 AM,86.0,53.6,33,29.95,6.2,East,4.6,-,N/A,,Mostly Cloudy,80,2013-08-19 05:30:00
7:00 AM,85,55,25,29.86,6,NE,4.6,,,,Scattered Clouds,40,2013-08-19 06:00:00
7:00 AM,84.2,55.4,37,29.95,6.2,NE,5.8,-,N/A,,Mostly Cloudy,50,2013-08-19 06:00:00
7:30 AM,86.0,53.6,33,29.95,5.6,East,5.8,-,N/A,,Mostly Cloudy,90,2013-08-19 06:30:00
8:00 AM,86.0,51.8,31,29.98,5.0,East,4.6,-,N/A,,Mostly Cloudy,80,2013-08-19 07:00:00
8:30 AM,86.0,59.0,40,30.01,5.6,West,4.6,-,N/A,,Mostly Cloudy,280,2013-08-19 07:30:00
9:00 AM,86.0,59.0,40,30.01,5.6,West,5.8,-,N/A,,Mostly Cloudy,270,2013-08-19 08:00:00
9:30 AM,87.8,57.2,35,30.01,5.6,West,4.6,-,N/A,,Mostly Cloudy,280,2013-08-19 08:30:00
10:00 AM,91.4,53.6,28,30.04,5.6,Variable,2.3,-,N/A,,Mostly Cloudy,0,2013-08-19 09:00:00
10:30 AM,93.2,57.2,30,30.04,5.6,SW,5.8,-,N/A,,Mostly Cloudy,230,2013-08-19 09:30:00
11:00 AM,93.2,57.2,30,30.04,6.2,WSW,10.4,-,N/A,,Scattered Clouds,240,2013-08-19 10:00:00
11:30 AM,96.8,57.2,27,30.04,6.2,West,10.4,-,N/A,,Scattered Clouds,270,2013-08-19 10:30:00
12:00 PM,96.8,59.0,28,30.04,6.2,West,11.5,-,N/A,,Scattered Clouds,260,2013-08-19 11:00:00
12:30 PM,98.6,57.2,25,30.04,6.2,West,13.8,-,N/A,,Scattered Clouds,270,2013-08-19 11:30:00
1:00 PM,101,53,12,29.91,6,West,17.3,,,,Scattered Clouds,270,2013-08-19 12:00:00
1:00 PM,100.4,53.6,21,30.04,6.2,West,16.1,-,N/A,,Scattered Clouds,270,2013-08-19 12:00:00
1:30 PM,102.2,51.8,18,30.04,4.3,West,13.8,-,N/A,,Scattered Clouds,280,2013-08-19 12:30:00
2:00 PM,104.0,50.0,16,30.04,5.0,WNW,11.5,-,N/A,,Scattered Clouds,290,2013-08-19 13:00:00
2:30 PM,104.0,50.0,16,30.04,4.3,WNW,12.7,-,N/A,,Scattered Clouds,290,2013-08-19 13:30:00
3:00 PM,104.0,48.2,15,30.04,4.3,NW,9.2,-,N/A,,Scattered Clouds,310,2013-08-19 14:00:00
3:30 PM,105.8,50.0,15,30.01,4.3,West,9.2,-,N/A,,Scattered Clouds,280,2013-08-19 14:30:00
4:00 PM,106,49,8,29.86,4,NW,6.9,,,,Scattered Clouds,310,2013-08-19 15:00:00
4:00 PM,105.8,46.4,14,30.01,4.3,NNW,6.9,-,N/A,,Scattered Clouds,330,2013-08-19 15:00:00
4:30 PM,107.6,48.2,14,30.01,4.3,WSW,4.6,-,N/A,,Scattered Clouds,250,2013-08-19 15:30:00
5:00 PM,107.6,50.0,15,30.01,4.3,Variable,4.6,-,N/A,,Scattered Clouds,0,2013-08-19 16:00:00
5:30 PM,105.8,48.2,14,30.01,4.3,WSW,5.8,-,N/A,,Mostly Cloudy,250,2013-08-19 16:30:00
6:00 PM,105.8,50.0,15,30.01,3.7,West,9.2,-,N/A,,Mostly Cloudy,260,2013-08-19 17:00:00
6:30 PM,104.0,48.2,15,29.98,3.7,West,9.2,-,N/A,,Mostly Cloudy,280,2013-08-19 17:30:00
7:00 PM,101,51,11,29.86,4,NE,15.0,,,,Scattered Clouds,40,2013-08-19 18:00:00
7:00 PM,102.2,51.8,18,30.01,3.7,NNE,13.8,-,N/A,,Mostly Cloudy,30,2013-08-19 18:00:00
7:30 PM,102.2,50.0,17,30.01,4.3,NNE,10.4,-,N/A,,Mostly Cloudy,30,2013-08-19 18:30:00
8:00 PM,96.8,55.4,25,30.04,3.1,ENE,15.0,-,N/A,,Mostly Cloudy,70,2013-08-19 19:00:00
8:30 PM,96.8,55.4,25,30.06,5.0,ESE,11.5,-,N/A,,Mostly Cloudy,110,2013-08-19 19:30:00
8:37 PM,95.0,57.2,28,30.06,1.9,SSE,17.3,31.1,N/A,,Sand,150,2013-08-19 19:37:00
9:00 PM,95.0,53.6,25,30.06,1.9,SSE,16.1,-,N/A,,Sand,150,2013-08-19 20:00:00
9:22 PM,95.0,53.6,25,30.06,5.0,South,12.7,-,N/A,,Mostly Cloudy,180,2013-08-19 20:22:00
9:30 PM,95.0,53.6,25,30.06,4.3,South,12.7,-,N/A,,Mostly Cloudy,180,2013-08-19 20:30:00
10:00 PM,96.8,51.8,22,30.06,4.3,South,10.4,-,N/A,,Mostly Cloudy,190,2013-08-19 21:00:00
10:30 PM,95.0,51.8,23,30.06,5.0,WNW,5.8,-,N/A,,Mostly Cloudy,300,2013-08-19 21:30:00
11:00 PM,95.0,51.8,23,30.09,5.0,ENE,6.9,-,N/A,,Mostly Cloudy,60,2013-08-19 22:00:00
11:30 PM,93.2,53.6,26,30.12,5.0,Variable,2.3,-,N/A,,Mostly Cloudy,0,2013-08-19 22:30:00